Tracking 25709 objects as of 24-May-2022
HD Live streaming from Space Station
objects crossing your sky now

CZ-3B R/B

Track CZ-3B R/B now!
10-day predictions


NORAD ID: 43624
Int'l Code: 2018-072C
Perigee: 172.6 km
Apogee: 16,459.4 km
Inclination: 55.0 °
Period: 295.2 minutes
Semi major axis: 14686 km
RCS: Unknown
Launch date: September 19, 2018
Source: People's Republic of China (PRC)
Launch site: Xichang Space Center, China (XSC)

Note: This is a ROCKET BODY
aabbcc
Your satellite tracking list
Your tracking list is empty




NASA's NSSDC Master Catalog

Two Line Element Set (TLE):
1 43624U 18072C   22144.07191617  .00075933  43318-7  57215-3 0  9998
2 43624  54.9703  96.2507 5544650 251.5592  42.8772  4.87758636 61377
Source of the keplerian elements: AFSPC